START_TIME,STEP,MOV.,H8,t_acc.,H43,t_acc.,M25,t_acc.,H9,t_acc.
1979-07-16 21:00:29.540 ,0,0,0.,12.0,0.,12.0,0.,12.0,0.,12.0
1979-07-16 21:00:41.540 ,0,0,0.,12.0,0.,12.0,0.,12.0,0.,12.0
1979-07-16 21:00:53.540 ,0,0,0.,12.0,0.,12.0,0.,12.0,0.,12.0
1979-07-16 21:01:05.540 ,0,0,0.,12.0,0.,12.0,0.,12.0,0.,12.0
1979-07-16 21:01:17.540 ,0,0,0.,12.0,0.,12.0,0.,12.0,0.,12.0
1979-07-16 21:01:29.540 ,0,0,0.,12.0,0.,12.0,0.,12.0,0.,12.0
1979-07-16 21:01:41.540 ,1,0,0.,12.0,0.,12.0,0.,12.0,0.,12.0
1979-07-16 21:01:53.540 ,1,0,0.,12.0,0.,12.0,0.,12.0,0.,12.0
1979-07-16 21:02:05.540 ,1,0,0.,12.0,0.,12.0,0.,12.0,0.,12.0
1979-07-16 21:02:17.540 ,1,0,0.,12.0,0.,12.0,0.,12.0,0.,12.0
1979-07-16 21:02:29.540 ,2,0,0.,12.0,0.,12.0,0.,12.0,0.,12.0
1979-07-16 21:02:41.540 ,2,0,0.,12.0,0.,12.0,0.,12.0,0.,12.0
1979-07-16 21:02:53.540 ,2,0,0.,12.0,0.,12.0,0.,12.0,0.,12.0
1979-07-16 21:03:05.540 ,2,0,0.,12.0,0.,12.0,0.,12.0,0.,12.0
1979-07-16 21:03:17.540 ,3,0,0.,12.0,0.,12.0,0.,12.0,0.,12.0
1979-07-16 21:03:29.540 ,3,0,0.,12.0,0.,12.0,0.,12.0,0.,12.0
1979-07-16 21:03:41.540 ,3,0,0.,12.0,0.,12.0,0.,12.0,0.,12.0
1979-07-16 21:03:53.540 ,3,0,0.,12.0,0.,12.0,0.,12.0,0.,12.0
1979-07-16 21:04:05.540 ,4,0,0.,12.0,0.,12.0,0.,12.0,0.,12.0
1979-07-16 21:04:17.540 ,4,0,0.,12.0,0.,12.0,0.,12.0,0.,12.0
1979-07-16 21:04:29.540 ,4,0,1.,12.0,0.,12.0,0.,12.0,0.,12.0
1979-07-16 21:04:41.540 ,4,0,0.,12.0,0.,12.0,0.,12.0,0.,12.0
1979-07-16 21:04:53.540 ,5,0,0.,12.0,0.,12.0,0.,12.0,0.,12.0
1979-07-16 21:05:05.540 ,5,0,0.,12.0,0.,12.0,0.,12.0,0.,12.0
1979-07-16 21:05:17.540 ,5,0,1.,12.0,0.,12.0,0.,12.0,0.,12.0
1979-07-16 21:05:29.540 ,5,0,0.,12.0,0.,12.0,0.,12.0,0.,12.0
1979-07-16 21:05:41.540 ,6,0,0.,12.0,0.,12.0,0.,12.0,0.,12.0
1979-07-16 21:05:53.540 ,6,0,0.,12.0,0.,12.0,0.,12.0,0.,12.0
1979-07-16 21:06:05.540 ,6,0,0.,12.0,0.,12.0,0.,12.0,0.,12.0
1979-07-16 21:06:17.540 ,6,0,1.,12.0,0.,12.0,0.,12.0,0.,12.0
1979-07-16 21:06:29.540 ,7,0,0.,12.0,0.,12.0,0.,12.0,0.,12.0
1979-07-16 21:06:41.540 ,7,0,0.,12.0,0.,12.0,0.,12.0,0.,12.0
1979-07-16 21:06:53.540 ,7,0,0.,12.0,0.,12.0,0.,12.0,0.,12.0
1979-07-16 21:07:05.540 ,7,0,0.,12.0,0.,12.0,0.,12.0,0.,12.0
1979-07-16 21:07:17.540 ,3,1,0.,12.0,0.,12.0,0.,12.0,0.,12.0
1979-07-16 21:07:29.540 ,3,1,0.,12.0,0.,12.0,0.,12.0,0.,12.0
1979-07-16 21:07:41.540 ,0,1,1.,12.0,0.,12.0,0.,12.0,0.,12.0
1979-07-16 21:07:53.540 ,0,1,0.,12.0,0.,12.0,0.,12.0,0.,12.0
1979-07-16 21:08:05.540 ,4,1,0.,12.0,0.,12.0,0.,12.0,0.,12.0
1979-07-16 21:08:17.540 ,4,1,0.,12.0,0.,12.0,0.,12.0,0.,12.0
1979-07-16 21:08:29.540 ,7,1,0.,12.0,0.,12.0,0.,12.0,0.,12.0
1979-07-16 21:08:41.540 ,7,1,0.,12.0,0.,12.0,0.,12.0,0.,12.0
1979-07-16 21:08:53.540 ,3,1,0.,12.0,0.,12.0,0.,12.0,0.,12.0
1979-07-16 21:09:05.540 ,3,1,0.,12.0,0.,12.0,0.,12.0,0.,12.0
1979-07-16 21:09:17.540 ,0,1,0.,12.0,0.,12.0,0.,12.0,0.,12.0
1979-07-16 21:09:29.540 ,0,1,0.,12.0,0.,12.0,0.,12.0,0.,12.0
1979-07-16 21:09:41.540 ,4,1,0.,12.0,0.,12.0,0.,12.0,0.,12.0
1979-07-16 21:09:53.540 ,4,1,0.,12.0,0.,12.0,0.,12.0,0.,12.0
1979-07-16 21:10:05.540 ,7,1,0.,12.0,0.,12.0,0.,12.0,0.,12.0
1979-07-16 21:10:17.540 ,7,1,0.,12.0,0.,12.0,0.,12.0,0.,12.0
1979-07-16 21:10:29.540 ,3,1,0.,12.0,0.,12.0,0.,12.0,0.,12.0
1979-07-16 21:10:41.540 ,3,1,0.,12.0,0.,12.0,0.,12.0,0.,12.0
1979-07-16 21:10:53.540 ,0,1,1.,12.0,0.,12.0,0.,12.0,0.,12.0
1979-07-16 21:11:05.540 ,0,1,0.,12.0,0.,12.0,0.,12.0,0.,12.0
1979-07-16 21:11:17.540 ,4,1,0.,12.0,0.,12.0,0.,12.0,0.,12.0
1979-07-16 21:11:29.540 ,4,1,0.,12.0,0.,12.0,0.,12.0,0.,12.0
1979-07-16 21:11:41.540 ,7,1,0.,12.0,0.,12.0,0.,12.0,0.,12.0
1979-07-16 21:11:53.540 ,7,1,0.,12.0,0.,12.0,0.,12.0,0.,12.0
1979-07-16 21:12:05.540 ,3,1,0.,12.0,0.,12.0,0.,12.0,0.,12.0
1979-07-16 21:12:17.540 ,3,1,0.,12.0,0.,12.0,0.,12.0,0.,12.0
1979-07-16 21:12:29.540 ,0,1,0.,12.0,0.,12.0,0.,12.0,0.,12.0
1979-07-16 21:12:41.540 ,0,1,0.,12.0,0.,12.0,0.,12.0,0.,12.0
1979-07-16 21:12:53.540 ,4,1,0.,12.0,0.,12.0,0.,12.0,0.,12.0
1979-07-16 21:13:05.540 ,4,1,0.,12.0,0.,12.0,0.,12.0,0.,12.0
1979-07-16 21:13:17.540 ,7,1,0.,12.0,0.,12.0,0.,12.0,0.,12.0
1979-07-16 21:13:29.540 ,7,1,0.,12.0,0.,12.0,0.,12.0,0.,12.0
1979-07-16 21:13:41.540 ,3,1,0.,12.0,0.,12.0,0.,12.0,0.,12.0
1979-07-16 21:13:53.540 ,3,1,0.,12.0,0.,12.0,0.,12.0,0.,12.0
1979-07-16 21:14:05.540 ,0,1,0.,12.0,0.,12.0,0.,12.0,0.,12.0
1979-07-16 21:14:17.540 ,0,1,0.,12.0,0.,12.0,0.,12.0,0.,12.0
1979-07-16 21:14:29.540 ,4,1,0.,12.0,0.,12.0,0.,12.0,0.,12.0
1979-07-16 21:14:41.540 ,4,1,0.,12.0,0.,12.0,0.,12.0,0.,12.0
1979-07-16 21:14:53.540 ,7,1,0.,12.0,0.,12.0,0.,12.0,0.,12.0
1979-07-16 21:15:05.540 ,7,1,0.,12.0,0.,12.0,0.,12.0,0.,12.0
1979-07-16 21:15:17.540 ,3,1,0.,12.0,0.,12.0,0.,12.0,0.,12.0
1979-07-16 21:15:29.540 ,3,1,0.,12.0,0.,12.0,0.,12.0,0.,12.0
1979-07-16 21:15:41.540 ,0,1,0.,12.0,0.,12.0,0.,12.0,0.,12.0
1979-07-16 21:15:53.540 ,0,1,0.,12.0,0.,12.0,0.,12.0,0.,12.0
1979-07-16 21:16:05.540 ,4,1,0.,12.0,0.,12.0,0.,12.0,0.,12.0
1979-07-16 21:16:17.540 ,4,1,0.,12.0,0.,12.0,0.,12.0,0.,12.0
1979-07-16 21:16:29.540 ,7,1,0.,12.0,0.,12.0,0.,12.0,0.,12.0
1979-07-16 21:16:41.540 ,7,1,0.,12.0,0.,12.0,0.,12.0,0.,12.0
1979-07-16 21:16:53.540 ,3,1,0.,12.0,0.,12.0,0.,12.0,0.,12.0
1979-07-16 21:17:05.540 ,3,1,0.,12.0,0.,12.0,0.,12.0,0.,12.0
1979-07-16 21:17:17.540 ,0,1,1.,12.0,0.,12.0,0.,12.0,0.,12.0
1979-07-16 21:17:29.540 ,0,1,0.,12.0,0.,12.0,0.,12.0,0.,12.0
1979-07-16 21:17:41.540 ,0,0,0.,12.0,0.,12.0,0.,12.0,0.,12.0
1979-07-16 21:17:53.540 ,0,0,0.,12.0,0.,12.0,0.,12.0,0.,12.0
1979-07-16 21:18:05.540 ,0,0,0.,12.0,0.,12.0,0.,12.0,0.,12.0
1979-07-16 21:18:17.540 ,0,0,0.,12.0,0.,12.0,0.,12.0,0.,12.0
1979-07-16 21:18:29.540 ,5,0,0.,12.0,0.,12.0,0.,12.0,0.,12.0
1979-07-16 21:18:41.540 ,5,0,0.,12.0,0.,12.0,0.,12.0,0.,12.0
1979-07-16 21:18:53.540 ,5,0,0.,12.0,0.,12.0,0.,12.0,0.,12.0
1979-07-16 21:19:05.540 ,5,0,0.,12.0,0.,12.0,0.,12.0,0.,12.0
1979-07-16 21:19:17.540 ,4,0,0.,12.0,0.,12.0,0.,12.0,0.,12.0
1979-07-16 21:19:29.540 ,4,0,0.,12.0,0.,12.0,0.,12.0,0.,12.0
1979-07-16 21:19:41.540 ,4,0,0.,12.0,0.,12.0,0.,12.0,0.,12.0
1979-07-16 21:19:53.540 ,4,0,0.,12.0,0.,12.0,0.,12.0,0.,12.0
1979-07-16 21:20:05.540 ,3,0,0.,12.0,0.,12.0,0.,12.0,0.,12.0
1979-07-16 21:20:17.540 ,3,0,0.,12.0,0.,12.0,0.,12.0,0.,12.0
1979-07-16 21:20:29.540 ,3,0,0.,12.0,0.,12.0,0.,12.0,0.,12.0
1979-07-16 21:20:41.540 ,3,0,0.,12.0,0.,12.0,0.,12.0,0.,12.0
1979-07-16 21:20:53.540 ,2,0,0.,12.0,0.,12.0,0.,12.0,0.,12.0
1979-07-16 21:21:05.540 ,2,0,0.,12.0,0.,12.0,0.,12.0,0.,12.0
1979-07-16 21:21:17.540 ,2,0,0.,12.0,0.,12.0,0.,12.0,0.,12.0
1979-07-16 21:21:29.540 ,2,0,1.,12.0,0.,12.0,0.,12.0,0.,12.0
1979-07-16 21:21:41.540 ,1,0,0.,12.0,0.,12.0,0.,12.0,0.,12.0
1979-07-16 21:21:53.540 ,1,0,0.,12.0,0.,12.0,0.,12.0,0.,12.0
1979-07-16 21:22:05.540 ,1,0,0.,12.0,0.,12.0,0.,12.0,0.,12.0
1979-07-16 21:22:17.540 ,1,0,0.,12.0,0.,12.0,0.,12.0,0.,12.0
1979-07-16 21:22:29.540 ,0,0,0.,12.0,0.,12.0,0.,12.0,0.,12.0
1979-07-16 21:22:41.540 ,0,0,0.,12.0,0.,12.0,0.,12.0,0.,12.0
1979-07-16 21:22:53.540 ,0,0,0.,12.0,0.,12.0,0.,12.0,0.,12.0
1979-07-16 21:23:05.540 ,0,0,0.,12.0,0.,12.0,0.,12.0,0.,12.0
1979-07-16 21:23:17.540 ,0,0,0.,12.0,0.,12.0,0.,12.0,0.,12.0
1979-07-16 21:23:29.540 ,0,0,0.,12.0,0.,12.0,0.,12.0,0.,12.0
1979-07-16 21:23:41.540 ,0,0,0.,12.0,0.,12.0,0.,12.0,0.,12.0
1979-07-16 21:23:53.540 ,0,0,0.,12.0,0.,12.0,0.,12.0,0.,12.0
1979-07-16 21:24:05.540 ,1,0,0.,12.0,0.,12.0,0.,12.0,0.,12.0
1979-07-16 21:24:17.540 ,1,0,0.,12.0,0.,12.0,0.,12.0,0.,12.0
1979-07-16 21:24:29.540 ,1,0,0.,12.0,0.,12.0,0.,12.0,0.,12.0
1979-07-16 21:24:41.540 ,1,0,0.,12.0,0.,12.0,0.,12.0,0.,12.0
1979-07-16 21:24:53.540 ,2,0,0.,12.0,0.,12.0,0.,12.0,0.,12.0
1979-07-16 21:25:05.540 ,2,0,0.,12.0,0.,12.0,0.,12.0,0.,12.0
1979-07-16 21:25:17.540 ,2,0,0.,12.0,0.,12.0,0.,12.0,0.,12.0
1979-07-16 21:25:29.540 ,2,0,0.,12.0,0.,12.0,0.,12.0,0.,12.0
1979-07-16 21:25:41.540 ,3,0,0.,12.0,0.,12.0,0.,12.0,0.,12.0
1979-07-16 21:25:53.540 ,3,0,0.,12.0,0.,12.0,0.,12.0,0.,12.0
1979-07-16 21:26:05.540 ,3,0,1.,12.0,0.,12.0,0.,12.0,0.,12.0
1979-07-16 21:26:17.540 ,3,0,0.,12.0,0.,12.0,0.,12.0,0.,12.0
1979-07-16 21:26:29.540 ,4,0,0.,12.0,0.,12.0,0.,12.0,0.,12.0
1979-07-16 21:26:41.540 ,4,0,0.,12.0,0.,12.0,0.,12.0,0.,12.0
1979-07-16 21:26:53.540 ,4,0,0.,12.0,0.,12.0,0.,12.0,0.,12.0
1979-07-16 21:27:05.540 ,4,0,0.,12.0,0.,12.0,0.,12.0,0.,12.0
1979-07-16 21:27:17.540 ,5,0,0.,12.0,0.,12.0,0.,12.0,0.,12.0
1979-07-16 21:27:29.540 ,5,0,0.,12.0,0.,12.0,0.,12.0,0.,12.0
1979-07-16 21:27:41.540 ,5,0,0.,12.0,0.,12.0,0.,12.0,0.,12.0
1979-07-16 21:27:53.540 ,5,0,0.,12.0,0.,12.0,0.,12.0,0.,12.0
1979-07-16 21:28:05.540 ,6,0,0.,12.0,0.,12.0,0.,12.0,0.,12.0
1979-07-16 21:28:17.540 ,6,0,0.,12.0,0.,12.0,0.,12.0,0.,12.0
1979-07-16 21:28:29.540 ,6,0,0.,12.0,0.,12.0,0.,12.0,0.,12.0
1979-07-16 21:28:41.540 ,6,0,0.,12.0,0.,12.0,0.,12.0,0.,12.0
1979-07-16 21:28:53.540 ,7,0,0.,12.0,0.,12.0,0.,12.0,0.,12.0
1979-07-16 21:29:05.540 ,7,0,0.,12.0,0.,12.0,0.,12.0,0.,12.0
1979-07-16 21:29:17.540 ,7,0,0.,12.0,0.,12.0,0.,12.0,0.,12.0
1979-07-16 21:29:29.540 ,7,0,0.,12.0,0.,12.0,0.,12.0,0.,12.0
1979-07-16 21:29:41.540 ,7,0,0.,12.0,0.,12.0,0.,12.0,0.,12.0
1979-07-16 21:29:53.540 ,7,0,0.,12.0,0.,12.0,0.,12.0,0.,12.0
1979-07-16 21:30:05.540 ,7,0,0.,12.0,0.,12.0,0.,12.0,0.,12.0
1979-07-16 21:30:17.540 ,7,0,0.,12.0,0.,12.0,0.,12.0,0.,12.0
1979-07-16 21:30:29.540 ,6,0,0.,12.0,0.,12.0,0.,12.0,0.,12.0
1979-07-16 21:30:41.540 ,6,0,0.,12.0,0.,12.0,0.,12.0,0.,12.0
1979-07-16 21:30:53.540 ,6,0,0.,12.0,0.,12.0,0.,12.0,0.,12.0
1979-07-16 21:31:05.540 ,6,0,0.,12.0,0.,12.0,0.,12.0,0.,12.0
1979-07-16 21:31:17.540 ,5,0,0.,12.0,0.,12.0,0.,12.0,0.,12.0
1979-07-16 21:31:29.540 ,5,0,0.,12.0,0.,12.0,0.,12.0,0.,12.0
1979-07-16 21:31:41.540 ,5,0,0.,12.0,0.,12.0,0.,12.0,0.,12.0
1979-07-16 21:31:53.540 ,5,0,0.,12.0,0.,12.0,0.,12.0,0.,12.0
1979-07-16 21:32:05.540 ,4,0,0.,12.0,0.,12.0,0.,12.0,0.,12.0
1979-07-16 21:32:17.540 ,4,0,1.,12.0,0.,12.0,0.,12.0,0.,12.0
1979-07-16 21:32:29.540 ,4,0,0.,12.0,0.,12.0,0.,12.0,0.,12.0
1979-07-16 21:32:41.540 ,4,0,0.,12.0,0.,12.0,0.,12.0,0.,12.0
1979-07-16 21:32:53.540 ,3,0,0.,12.0,0.,12.0,0.,12.0,0.,12.0
1979-07-16 21:33:05.540 ,3,0,0.,12.0,0.,12.0,0.,12.0,0.,12.0
1979-07-16 21:33:17.540 ,3,0,0.,12.0,0.,12.0,0.,12.0,0.,12.0
1979-07-16 21:33:29.540 ,3,0,0.,12.0,0.,12.0,0.,12.0,0.,12.0
1979-07-16 21:33:41.540 ,2,0,0.,12.0,0.,12.0,0.,12.0,0.,12.0
1979-07-16 21:33:53.540 ,2,0,0.,12.0,0.,12.0,0.,12.0,0.,12.0
1979-07-16 21:34:05.540 ,2,0,0.,12.0,0.,12.0,0.,12.0,0.,12.0
1979-07-16 21:34:17.540 ,2,0,0.,12.0,0.,12.0,0.,12.0,0.,12.0
1979-07-16 21:34:29.540 ,1,0,0.,12.0,0.,12.0,0.,12.0,0.,12.0
1979-07-16 21:34:41.540 ,1,0,0.,12.0,0.,12.0,0.,12.0,0.,12.0
1979-07-16 21:34:53.540 ,1,0,0.,12.0,0.,12.0,0.,12.0,0.,12.0
1979-07-16 21:35:05.540 ,1,0,0.,12.0,0.,12.0,0.,12.0,0.,12.0
1979-07-16 21:35:17.540 ,0,0,0.,12.0,0.,12.0,0.,12.0,0.,12.0
1979-07-16 21:35:29.540 ,0,0,0.,12.0,0.,12.0,0.,12.0,0.,12.0
1979-07-16 21:35:41.540 ,0,0,0.,12.0,0.,12.0,0.,12.0,0.,12.0
1979-07-16 21:35:53.540 ,0,0,0.,12.0,0.,12.0,0.,12.0,0.,12.0
1979-07-16 21:36:05.540 ,0,0,0.,12.0,0.,12.0,0.,12.0,0.,12.0
1979-07-16 21:36:17.540 ,0,0,0.,12.0,0.,12.0,0.,12.0,0.,12.0
1979-07-16 21:36:29.540 ,0,0,0.,12.0,0.,12.0,0.,12.0,0.,12.0
1979-07-16 21:36:41.540 ,0,0,0.,12.0,0.,12.0,0.,12.0,0.,12.0
1979-07-16 21:36:53.540 ,1,0,0.,12.0,0.,12.0,0.,12.0,0.,12.0
1979-07-16 21:37:05.540 ,1,0,0.,12.0,0.,12.0,0.,12.0,0.,12.0
1979-07-16 21:37:17.540 ,1,0,0.,12.0,0.,12.0,0.,12.0,0.,12.0
1979-07-16 21:37:29.540 ,1,0,0.,12.0,0.,12.0,0.,12.0,0.,12.0
1979-07-16 21:37:41.540 ,2,0,0.,12.0,0.,12.0,0.,12.0,0.,12.0
1979-07-16 21:37:53.540 ,2,0,0.,12.0,0.,12.0,0.,12.0,0.,12.0
1979-07-16 21:38:05.540 ,2,0,0.,12.0,0.,12.0,0.,12.0,0.,12.0
1979-07-16 21:38:17.540 ,2,0,0.,12.0,0.,12.0,0.,12.0,0.,12.0
1979-07-16 21:38:29.540 ,3,0,0.,12.0,0.,12.0,0.,12.0,0.,12.0
1979-07-16 21:38:41.540 ,3,0,0.,12.0,0.,12.0,0.,12.0,0.,12.0
1979-07-16 21:38:53.540 ,3,0,0.,12.0,0.,12.0,0.,12.0,0.,12.0
1979-07-16 21:39:05.540 ,3,0,1.,12.0,0.,12.0,0.,12.0,0.,12.0
1979-07-16 21:39:17.540 ,4,0,0.,12.0,0.,12.0,0.,12.0,0.,12.0
1979-07-16 21:39:29.540 ,4,0,0.,12.0,0.,12.0,0.,12.0,0.,12.0
1979-07-16 21:39:41.540 ,4,0,0.,12.0,0.,12.0,0.,12.0,0.,12.0
1979-07-16 21:39:53.540 ,4,0,0.,12.0,0.,12.0,0.,12.0,0.,12.0
1979-07-16 21:40:05.540 ,5,0,0.,12.0,0.,12.0,0.,12.0,0.,12.0
1979-07-16 21:40:17.540 ,5,0,0.,12.0,0.,12.0,0.,12.0,0.,12.0
1979-07-16 21:40:29.540 ,5,0,0.,12.0,0.,12.0,0.,12.0,0.,12.0
1979-07-16 21:40:41.540 ,5,0,0.,12.0,0.,12.0,0.,12.0,0.,12.0
1979-07-16 21:40:53.540 ,6,0,0.,12.0,0.,12.0,0.,12.0,0.,12.0
1979-07-16 21:41:05.540 ,6,0,0.,12.0,0.,12.0,0.,12.0,0.,12.0
1979-07-16 21:41:17.540 ,6,0,0.,12.0,0.,12.0,0.,12.0,0.,12.0
1979-07-16 21:41:29.540 ,6,0,1.,12.0,0.,12.0,0.,12.0,0.,12.0
1979-07-16 21:41:41.540 ,7,0,1.,12.0,0.,12.0,0.,12.0,0.,12.0
1979-07-16 21:41:53.540 ,7,0,0.,12.0,0.,12.0,0.,12.0,0.,12.0
1979-07-16 21:42:05.540 ,7,0,0.,12.0,0.,12.0,0.,12.0,0.,12.0
1979-07-16 21:42:17.540 ,7,0,0.,12.0,0.,12.0,0.,12.0,0.,12.0
1979-07-16 21:42:29.540 ,7,0,0.,12.0,0.,12.0,0.,12.0,0.,12.0
1979-07-16 21:42:41.540 ,7,0,0.,12.0,0.,12.0,0.,12.0,0.,12.0
1979-07-16 21:42:53.540 ,7,0,0.,12.0,0.,12.0,0.,12.0,0.,12.0
1979-07-16 21:43:05.540 ,7,0,0.,12.0,0.,12.0,0.,12.0,0.,12.0
1979-07-16 21:43:17.540 ,6,0,0.,12.0,0.,12.0,0.,12.0,0.,12.0
1979-07-16 21:43:29.540 ,6,0,0.,12.0,0.,12.0,0.,12.0,0.,12.0
1979-07-16 21:43:41.540 ,6,0,0.,12.0,0.,12.0,0.,12.0,0.,12.0
1979-07-16 21:43:53.540 ,6,0,0.,12.0,0.,12.0,0.,12.0,0.,12.0
1979-07-16 21:44:05.540 ,5,0,0.,12.0,0.,12.0,0.,12.0,0.,12.0
1979-07-16 21:44:17.540 ,5,0,0.,12.0,0.,12.0,0.,12.0,0.,12.0
1979-07-16 21:44:29.540 ,5,0,0.,12.0,0.,12.0,0.,12.0,0.,12.0
1979-07-16 21:44:41.540 ,5,0,0.,12.0,0.,12.0,0.,12.0,0.,12.0
1979-07-16 21:44:53.540 ,4,0,0.,12.0,0.,12.0,0.,12.0,0.,12.0
1979-07-16 21:45:05.540 ,4,0,0.,12.0,0.,12.0,0.,12.0,0.,12.0
1979-07-16 21:45:17.540 ,4,0,0.,12.0,0.,12.0,0.,12.0,0.,12.0
1979-07-16 21:45:29.540 ,4,0,0.,12.0,0.,12.0,0.,12.0,0.,12.0
1979-07-16 21:45:41.540 ,3,0,0.,12.0,0.,12.0,0.,12.0,0.,12.0
1979-07-16 21:45:53.540 ,3,0,0.,12.0,0.,12.0,0.,12.0,0.,12.0
1979-07-16 21:46:05.540 ,3,0,0.,12.0,0.,12.0,0.,12.0,0.,12.0
1979-07-16 21:46:17.540 ,3,0,0.,12.0,0.,12.0,0.,12.0,0.,12.0
1979-07-16 21:46:29.540 ,2,0,0.,12.0,0.,12.0,0.,12.0,0.,12.0
1979-07-16 21:46:41.540 ,2,0,0.,12.0,0.,12.0,0.,12.0,0.,12.0
1979-07-16 21:46:53.540 ,2,0,0.,12.0,0.,12.0,0.,12.0,0.,12.0
1979-07-16 21:47:05.540 ,2,0,1.,12.0,0.,12.0,0.,12.0,0.,12.0
1979-07-16 21:47:17.540 ,1,0,0.,12.0,0.,12.0,0.,12.0,0.,12.0
1979-07-16 21:47:29.540 ,1,0,0.,12.0,0.,12.0,0.,12.0,0.,12.0
1979-07-16 21:47:41.540 ,1,0,0.,12.0,0.,12.0,0.,12.0,0.,12.0
1979-07-16 21:47:53.540 ,1,0,0.,12.0,0.,12.0,0.,12.0,0.,12.0
1979-07-16 21:48:05.540 ,0,0,0.,12.0,0.,12.0,0.,12.0,0.,12.0
1979-07-16 21:48:17.540 ,0,0,0.,12.0,0.,12.0,0.,12.0,0.,12.0
1979-07-16 21:48:29.540 ,0,0,0.,12.0,0.,12.0,0.,12.0,0.,12.0
1979-07-16 21:48:41.540 ,0,0,0.,12.0,0.,12.0,0.,12.0,0.,12.0
1979-07-16 21:48:53.540 ,0,0,0.,12.0,0.,12.0,0.,12.0,0.,12.0
1979-07-16 21:49:05.540 ,0,0,0.,12.0,0.,12.0,0.,12.0,0.,12.0
1979-07-16 21:49:17.540 ,0,0,0.,12.0,0.,12.0,0.,12.0,0.,12.0
1979-07-16 21:49:29.540 ,0,0,0.,12.0,0.,12.0,0.,12.0,0.,12.0
1979-07-16 21:49:41.540 ,1,0,0.,12.0,0.,12.0,0.,12.0,0.,12.0
1979-07-16 21:49:53.540 ,1,0,0.,12.0,0.,12.0,0.,12.0,0.,12.0
1979-07-16 21:50:05.540 ,1,0,0.,12.0,0.,12.0,0.,12.0,0.,12.0
1979-07-16 21:50:17.540 ,1,0,0.,12.0,0.,12.0,0.,12.0,0.,12.0
1979-07-16 21:50:29.540 ,2,0,0.,12.0,0.,12.0,0.,12.0,0.,12.0
1979-07-16 21:50:41.540 ,2,0,0.,12.0,0.,12.0,0.,12.0,0.,12.0
1979-07-16 21:50:53.540 ,2,0,0.,12.0,0.,12.0,0.,12.0,0.,12.0
1979-07-16 21:51:05.540 ,2,0,0.,12.0,0.,12.0,0.,12.0,0.,12.0
1979-07-16 21:51:17.540 ,3,0,0.,12.0,0.,12.0,0.,12.0,0.,12.0
1979-07-16 21:51:29.540 ,3,0,0.,12.0,0.,12.0,0.,12.0,0.,12.0
1979-07-16 21:51:41.540 ,3,0,0.,12.0,0.,12.0,0.,12.0,0.,12.0
1979-07-16 21:51:53.540 ,3,0,1.,12.0,0.,12.0,0.,12.0,0.,12.0
1979-07-16 21:52:05.540 ,4,0,0.,12.0,0.,12.0,0.,12.0,0.,12.0
1979-07-16 21:52:17.540 ,4,0,0.,12.0,0.,12.0,0.,12.0,0.,12.0
1979-07-16 21:52:29.540 ,4,0,0.,12.0,0.,12.0,0.,12.0,0.,12.0
1979-07-16 21:52:41.540 ,4,0,0.,12.0,0.,12.0,0.,12.0,0.,12.0
1979-07-16 21:52:53.540 ,5,0,0.,12.0,0.,12.0,0.,12.0,0.,12.0
1979-07-16 21:53:05.540 ,5,0,0.,12.0,0.,12.0,0.,12.0,0.,12.0
1979-07-16 21:53:17.540 ,5,0,0.,12.0,0.,12.0,0.,12.0,0.,12.0
1979-07-16 21:53:29.540 ,5,0,0.,12.0,0.,12.0,0.,12.0,0.,12.0
1979-07-16 21:53:41.540 ,6,0,0.,12.0,0.,12.0,0.,12.0,0.,12.0
1979-07-16 21:53:53.540 ,6,0,0.,12.0,0.,12.0,0.,12.0,0.,12.0
1979-07-16 21:54:05.540 ,6,0,1.,12.0,0.,12.0,0.,12.0,0.,12.0
1979-07-16 21:54:17.540 ,6,0,0.,12.0,0.,12.0,0.,12.0,0.,12.0
1979-07-16 21:54:29.540 ,7,0,0.,12.0,0.,12.0,0.,12.0,0.,12.0
1979-07-16 21:54:41.540 ,7,0,0.,12.0,0.,12.0,0.,12.0,0.,12.0
1979-07-16 21:54:53.540 ,7,0,0.,12.0,0.,12.0,0.,12.0,0.,12.0
1979-07-16 21:55:05.540 ,7,0,0.,12.0,0.,12.0,0.,12.0,0.,12.0
1979-07-16 21:55:17.540 ,3,1,0.,12.0,0.,12.0,0.,12.0,0.,12.0
1979-07-16 21:55:29.540 ,3,1,0.,12.0,0.,12.0,0.,12.0,0.,12.0
1979-07-16 21:55:41.540 ,0,1,0.,12.0,0.,12.0,0.,12.0,0.,12.0
1979-07-16 21:55:53.540 ,0,1,0.,12.0,0.,12.0,0.,12.0,0.,12.0
1979-07-16 21:56:05.540 ,4,1,0.,12.0,0.,12.0,0.,12.0,0.,12.0
1979-07-16 21:56:17.540 ,4,1,0.,12.0,0.,12.0,0.,12.0,0.,12.0
1979-07-16 21:56:29.540 ,7,1,0.,12.0,0.,12.0,0.,12.0,0.,12.0
1979-07-16 21:56:41.540 ,7,1,0.,12.0,0.,12.0,0.,12.0,0.,12.0
1979-07-16 21:56:53.540 ,3,1,0.,12.0,0.,12.0,0.,12.0,0.,12.0
1979-07-16 21:57:05.540 ,3,1,0.,12.0,0.,12.0,0.,12.0,0.,12.0
1979-07-16 21:57:17.540 ,0,1,0.,12.0,0.,12.0,0.,12.0,0.,12.0
1979-07-16 21:57:29.540 ,0,1,0.,12.0,0.,12.0,0.,12.0,0.,12.0
1979-07-16 21:57:41.540 ,4,1,0.,12.0,0.,12.0,0.,12.0,0.,12.0
1979-07-16 21:57:53.540 ,4,1,0.,12.0,0.,12.0,0.,12.0,0.,12.0
1979-07-16 21:58:05.540 ,7,1,1.,12.0,0.,12.0,0.,12.0,0.,12.0
1979-07-16 21:58:17.540 ,7,1,0.,12.0,0.,12.0,0.,12.0,0.,12.0
1979-07-16 21:58:29.540 ,3,1,0.,12.0,0.,12.0,0.,12.0,0.,12.0
1979-07-16 21:58:41.540 ,3,1,0.,12.0,0.,12.0,0.,12.0,0.,12.0
1979-07-16 21:58:53.540 ,0,1,0.,12.0,0.,12.0,0.,12.0,0.,12.0
1979-07-16 21:59:05.540 ,0,1,0.,12.0,0.,12.0,0.,12.0,0.,12.0
1979-07-16 21:59:17.540 ,4,1,0.,12.0,0.,12.0,0.,12.0,0.,12.0
1979-07-16 21:59:29.540 ,4,1,0.,12.0,0.,12.0,0.,12.0,0.,12.0
1979-07-16 21:59:41.540 ,7,1,0.,12.0,0.,12.0,0.,12.0,0.,12.0
1979-07-16 21:59:53.540 ,7,1,0.,12.0,0.,12.0,0.,12.0,0.,12.0
1979-07-16 22:00:05.540 ,3,1,0.,12.0,0.,12.0,0.,12.0,0.,12.0
1979-07-16 22:00:17.540 ,3,1,0.,12.0,0.,12.0,0.,12.0,0.,12.0
1979-07-16 22:00:29.540 ,0,1,1.,12.0,0.,12.0,0.,12.0,0.,12.0
1979-07-16 22:00:41.540 ,0,1,0.,12.0,0.,12.0,0.,12.0,0.,12.0
1979-07-16 22:00:53.540 ,4,1,0.,12.0,0.,12.0,0.,12.0,0.,12.0
1979-07-16 22:01:05.540 ,4,1,0.,12.0,0.,12.0,0.,12.0,0.,12.0
1979-07-16 22:01:17.540 ,7,1,0.,12.0,0.,12.0,0.,12.0,0.,12.0
1979-07-16 22:01:29.540 ,7,1,0.,12.0,0.,12.0,0.,12.0,0.,12.0
1979-07-16 22:01:41.540 ,3,1,0.,12.0,0.,12.0,0.,12.0,0.,12.0
1979-07-16 22:01:53.540 ,3,1,0.,12.0,0.,12.0,0.,12.0,0.,12.0
1979-07-16 22:02:05.540 ,0,1,0.,12.0,0.,12.0,0.,12.0,0.,12.0
1979-07-16 22:02:17.540 ,0,1,0.,12.0,0.,12.0,0.,12.0,0.,12.0
1979-07-16 22:02:29.540 ,4,1,0.,12.0,0.,12.0,0.,12.0,0.,12.0
1979-07-16 22:02:41.540 ,4,1,0.,12.0,0.,12.0,0.,12.0,0.,12.0
1979-07-16 22:02:53.540 ,7,1,0.,12.0,0.,12.0,0.,12.0,0.,12.0
1979-07-16 22:03:05.540 ,7,1,0.,12.0,0.,12.0,0.,12.0,0.,12.0
1979-07-16 22:03:17.540 ,3,1,0.,12.0,0.,12.0,0.,12.0,0.,12.0
1979-07-16 22:03:29.540 ,3,1,0.,12.0,0.,12.0,0.,12.0,0.,12.0
1979-07-16 22:03:41.540 ,0,1,0.,12.0,0.,12.0,0.,12.0,0.,12.0
1979-07-16 22:03:53.540 ,0,1,0.,12.0,0.,12.0,0.,12.0,0.,12.0
1979-07-16 22:04:05.540 ,4,1,0.,12.0,0.,12.0,0.,12.0,0.,12.0
1979-07-16 22:04:17.540 ,4,1,0.,12.0,0.,12.0,0.,12.0,0.,12.0
1979-07-16 22:04:29.540 ,7,1,0.,12.0,0.,12.0,0.,12.0,0.,12.0
1979-07-16 22:04:41.540 ,7,1,0.,12.0,0.,12.0,0.,12.0,0.,12.0
1979-07-16 22:04:53.540 ,3,1,0.,12.0,0.,12.0,0.,12.0,0.,12.0
1979-07-16 22:05:05.540 ,3,1,0.,12.0,0.,12.0,0.,12.0,0.,12.0
1979-07-16 22:05:17.540 ,0,1,0.,12.0,0.,12.0,0.,12.0,0.,12.0
1979-07-16 22:05:29.540 ,0,1,0.,12.0,0.,12.0,0.,12.0,0.,12.0
1979-07-16 22:05:41.540 ,0,0,0.,12.0,0.,12.0,0.,12.0,0.,12.0
1979-07-16 22:05:53.540 ,0,0,0.,12.0,0.,12.0,0.,12.0,0.,12.0
1979-07-16 22:06:05.540 ,0,0,0.,12.0,0.,12.0,0.,12.0,0.,12.0
1979-07-16 22:06:17.540 ,0,0,0.,12.0,0.,12.0,0.,12.0,0.,12.0
1979-07-16 22:06:29.540 ,5,0,0.,12.0,0.,12.0,0.,12.0,0.,12.0
1979-07-16 22:06:41.540 ,5,0,0.,12.0,0.,12.0,0.,12.0,0.,12.0
1979-07-16 22:06:53.540 ,5,0,0.,12.0,0.,12.0,0.,12.0,0.,12.0
1979-07-16 22:07:05.540 ,5,0,0.,12.0,0.,12.0,0.,12.0,0.,12.0
1979-07-16 22:07:17.540 ,4,0,0.,12.0,0.,12.0,0.,12.0,0.,12.0
1979-07-16 22:07:29.540 ,4,0,0.,12.0,0.,12.0,0.,12.0,0.,12.0
1979-07-16 22:07:41.540 ,4,0,0.,12.0,0.,12.0,0.,12.0,0.,12.0
1979-07-16 22:07:53.540 ,4,0,0.,12.0,0.,12.0,0.,12.0,0.,12.0
1979-07-16 22:08:05.540 ,3,0,0.,12.0,0.,12.0,0.,12.0,0.,12.0
1979-07-16 22:08:17.540 ,3,0,0.,12.0,0.,12.0,0.,12.0,0.,12.0
1979-07-16 22:08:29.540 ,3,0,0.,12.0,0.,12.0,0.,12.0,0.,12.0
1979-07-16 22:08:41.540 ,3,0,0.,12.0,0.,12.0,0.,12.0,0.,12.0
1979-07-16 22:08:53.540 ,2,0,0.,12.0,0.,12.0,0.,12.0,0.,12.0
1979-07-16 22:09:05.540 ,2,0,0.,12.0,0.,12.0,0.,12.0,0.,12.0
1979-07-16 22:09:17.540 ,2,0,0.,12.0,0.,12.0,0.,12.0,0.,12.0
1979-07-16 22:09:29.540 ,2,0,1.,12.0,0.,12.0,0.,12.0,0.,12.0
1979-07-16 22:09:41.540 ,1,0,0.,12.0,0.,12.0,0.,12.0,0.,12.0
1979-07-16 22:09:53.540 ,1,0,0.,12.0,0.,12.0,0.,12.0,0.,12.0
1979-07-16 22:10:05.540 ,1,0,0.,12.0,0.,12.0,0.,12.0,0.,12.0
1979-07-16 22:10:17.540 ,1,0,0.,12.0,0.,12.0,0.,12.0,0.,12.0
1979-07-16 22:10:29.540 ,0,0,0.,12.0,0.,12.0,0.,12.0,0.,12.0
1979-07-16 22:10:41.540 ,0,0,0.,12.0,0.,12.0,0.,12.0,0.,12.0
1979-07-16 22:10:53.540 ,0,0,0.,12.0,0.,12.0,0.,12.0,0.,12.0
1979-07-16 22:11:05.540 ,0,0,0.,12.0,0.,12.0,0.,12.0,0.,12.0
1979-07-16 22:11:17.540 ,0,0,0.,12.0,0.,12.0,0.,12.0,0.,12.0
1979-07-16 22:11:29.540 ,0,0,0.,12.0,0.,12.0,0.,12.0,0.,12.0
1979-07-16 22:11:41.540 ,0,0,1.,12.0,0.,12.0,0.,12.0,0.,12.0
1979-07-16 22:11:53.540 ,0,0,0.,12.0,0.,12.0,0.,12.0,0.,12.0
1979-07-16 22:12:05.540 ,1,0,0.,12.0,0.,12.0,0.,12.0,0.,12.0
1979-07-16 22:12:17.540 ,1,0,0.,12.0,0.,12.0,0.,12.0,0.,12.0
1979-07-16 22:12:29.540 ,1,0,0.,12.0,0.,12.0,0.,12.0,0.,12.0
1979-07-16 22:12:41.540 ,1,0,0.,12.0,0.,12.0,0.,12.0,0.,12.0
1979-07-16 22:12:53.540 ,2,0,0.,12.0,0.,12.0,0.,12.0,0.,12.0
1979-07-16 22:13:05.540 ,2,0,0.,12.0,0.,12.0,0.,12.0,0.,12.0
1979-07-16 22:13:17.540 ,2,0,0.,12.0,0.,12.0,0.,12.0,0.,12.0
1979-07-16 22:13:29.540 ,2,0,0.,12.0,0.,12.0,0.,12.0,0.,12.0
1979-07-16 22:14:29.540 ,0,0,0.,12.0,0.,12.0,0.,12.0,0.,12.0
1979-07-16 22:14:41.540 ,0,0,0.,12.0,0.,12.0,0.,12.0,0.,12.0
1979-07-16 22:14:53.540 ,0,0,0.,12.0,0.,12.0,0.,12.0,0.,12.0
1979-07-16 22:15:05.540 ,0,0,0.,12.0,0.,12.0,0.,12.0,0.,12.0
1979-07-16 22:15:17.540 ,5,0,0.,12.0,0.,12.0,0.,12.0,0.,12.0
1979-07-16 22:15:29.540 ,5,0,0.,12.0,0.,12.0,0.,12.0,0.,12.0
1979-07-16 22:15:41.540 ,5,0,0.,12.0,0.,12.0,0.,12.0,0.,12.0
1979-07-16 22:15:53.540 ,5,0,0.,12.0,0.,12.0,0.,12.0,0.,12.0
1979-07-16 22:16:05.540 ,6,0,0.,12.0,0.,12.0,0.,12.0,0.,12.0
1979-07-16 22:16:17.540 ,6,0,0.,12.0,0.,12.0,0.,12.0,0.,12.0
1979-07-16 22:16:29.540 ,6,0,0.,12.0,0.,12.0,0.,12.0,0.,12.0
1979-07-16 22:16:41.540 ,6,0,0.,12.0,0.,12.0,0.,12.0,0.,12.0
1979-07-16 22:16:53.540 ,7,0,0.,12.0,0.,12.0,0.,12.0,0.,12.0
1979-07-16 22:17:05.540 ,7,0,0.,12.0,0.,12.0,0.,12.0,0.,12.0
1979-07-16 22:17:17.540 ,7,0,0.,12.0,0.,12.0,0.,12.0,0.,12.0
1979-07-16 22:17:29.540 ,7,0,0.,12.0,0.,12.0,0.,12.0,0.,12.0
1979-07-16 22:17:41.540 ,7,0,0.,12.0,0.,12.0,0.,12.0,0.,12.0
1979-07-16 22:17:53.540 ,7,0,0.,12.0,0.,12.0,0.,12.0,0.,12.0
1979-07-16 22:18:05.540 ,7,0,0.,12.0,0.,12.0,0.,12.0,0.,12.0
1979-07-16 22:18:17.540 ,7,0,0.,12.0,0.,12.0,0.,12.0,0.,12.0